Orbital Elements at Epoch 2459200.5 (2020-Dec-17.0) TDB
Reference: JPL 30 (heliocentric ecliptic J2000)
Element | Value | Uncertainty (1-sigma) | Units |
e | .1486797536666717 | 3.5158e-08 | |
a | 3.110120735963049 | 2.061e-08 | au |
q | 2.647708751066455 | 1.1598e-07 | au |
i | 6.260406463451374 | 4.0059e-06 | deg |
node | 117.6459032986112 | 3.9372e-05 | deg |
peri | 167.6029084557852 | 4.2187e-05 | deg |
M | 309.2390726423524 | 1.6521e-05 | deg |
tp | 2459482.982369181797 (2021-Sep-25.48236918) | 9.288e-05 | TDB |
period | 2003.384457280328 5.48 | 1.9914e-05 5.452e-08 | d yr |
n | .1796959134287754 | 1.7862e-09 | deg/d |
Q | 3.572532720859643 | 2.3674e-08 | au |
|
| | Orbit Determination Parameters
Additional Information
|